Location: Oshawa
(43.9000°N, 78.8670°W)
Time: 00:52:43
(UTC-04:00)

Altair - Visible Passes

Search period start: 18 April 2015 00:00
Search period end: 28 April 2015 00:00
Orbit: 1501 x 1683 km, 47.2° (Epoch: 15 April)

Date Brightness Start Highest point End Pass type
(mag) Time Alt. Az. Time Alt. Az. Time Alt. Az.
18 Apr 8.5 03:28:26 25° SSE 03:31:15 30° SE 03:38:59 10° ENE visible
18 Apr 7.6 05:26:27 13° SW 05:35:05 77° SSE 05:44:15 10° ENE visible
19 Apr 8.5 03:04:34 26° SSE 03:06:12 27° SE 03:13:42 10° ENE visible
19 Apr 7.5 05:02:35 18° SW 05:09:57 73° SSE 05:19:07 10° ENE visible
20 Apr 8.6 02:40:38 25° SE 02:41:10 25° SE 02:48:24 10° E visible
20 Apr 7.5 04:38:39 24° SW 04:44:51 69° SSE 04:53:59 10° ENE visible
21 Apr 8.7 02:16:40 23° SE 02:16:40 23° SE 02:23:02 10° E visible
21 Apr 7.6 04:14:40 30° SW 04:19:44 66° SSE 04:28:50 10° ENE visible
22 Apr 8.8 01:52:39 20° ESE 01:52:39 20° ESE 01:57:39 10° E visible
22 Apr 7.6 03:50:39 37° SSW 03:54:38 62° SSE 04:03:43 10° ENE visible
22 Apr 7.6 05:49:53 10° W 05:59:19 77° N 06:08:32 10° ENE visible
23 Apr 9.0 01:28:35 17° ESE 01:28:35 17° ESE 01:32:12 10° E visible
23 Apr 7.6 03:26:34 43° SSW 03:29:31 58° SE 03:38:34 10° ENE visible
23 Apr 7.6 05:24:40 10° W 05:34:08 79° NNW 05:43:23 10° ENE visible
24 Apr 9.2 01:04:29 14° ESE 01:04:29 14° ESE 01:06:39 10° E visible
24 Apr 7.6 03:02:27 48° S 03:04:26 55° SE 03:13:25 10° ENE visible
24 Apr 7.5 05:00:27 14° WSW 05:08:58 81° NNW 05:18:13 10° ENE visible
25 Apr 9.3 00:40:19 11° E 00:40:19 11° E 00:41:00 10° E visible
25 Apr 7.6 02:38:18 49° SSE 02:39:20 51° SE 02:48:15 10° ENE visible
25 Apr 7.5 04:36:17 18° WSW 04:43:48 83° NNW 04:53:04 10° ENE visible
26 Apr 7.7 02:14:05 48° SE 02:14:15 48° SE 02:23:06 10° ENE visible
26 Apr 7.5 04:12:04 23° WSW 04:18:38 85° NNW 04:27:56 10° ENE visible
27 Apr 7.8 01:49:50 44° SE 01:49:50 44° SE 01:57:54 10° ENE visible
27 Apr 7.4 03:47:48 29° WSW 03:53:28 88° NNW 04:02:47 10° ENE visible
